Regional Weather Roundup
Issued by NWS

Home | Current Version | Previous Version | Graphics & Text | Print | Product List | Glossary On
Versions: 1 2 3 4 5 6 7 8 9 10 11 12 13 14 15 16 17 18 19 20 21 22 23 24 25 26 27 28 29 30 31 32 33 34 35 36 37 38 39 40 41 42 43 44 45 46 47 48 49 50
000
ASUS43 KIND 122259
RWRIN

WEATHER ROUNDUP FOR INDIANA
NATIONAL WEATHER SERVICE INDIANAPOLIS IN
700 PM EDT SAT JUL 12 2014

NOTE: "FAIR" INDICATES FEW OR NO CLOUDS BELOW 12,000 FEET WITH NO
SIGNIFICANT WEATHER AND/OR OBSTRUCTIONS TO VISIBILITY.

* - STATION DOES NOT REPORT WEATHER SUCH AS PRECIPITATION OR FOG.

+ - STATION NOT QUALITY CONTROLLED BY THE NATIONAL WEATHER SERVICE.
    USE DATA WITH CAUTION...ESPECIALLY DEWPOINT AND RELATIVE
    HUMIDITY OBSERVATIONS.

INZ001>003-010>013-019-020-130000-
NORTHWEST INDIANA

CITY           SKY/WX    TMP DP  RH WIND       PRES   REMARKS
GARY /AIRPORT/ CLOUDY    79  73  83 SW9       29.96F
KNOX *+        CLOUDY    77  70  78 SW9       29.99F
MONTICELLO +   CLOUDY    76  71  84 SW8       30.01F
RENSSELAER +   CLOUDY    77  73  88 S14       29.99F
VALPARAISO     CLOUDY    77  71  82 SW10G18   29.99F

$$

LMZ046-743>745-130000-
SOUTHERN LAKE MICHIGAN

STATION/POSITION TIME  TEMP WIND        PRES
                       AIR  DIR/SP/G
                 (UTC) (F)  (DEG/KT/KT) (MB)
BURNS HARBOR     2200   77  210/ 13/ 18 1015.2
MICHIGAN CITY    2200   77  180/ 11/ 15   N/A

$$

INZ004-005-014>016-021>024-130000-
NORTH CENTRAL INDIANA

CITY           SKY/WX    TMP DP  RH WIND       PRES   REMARKS
GOSHEN         PTSUNNY   78  70  76 S9        30.02F
SOUTH BEND     CLOUDY    78  69  73 S10       30.00F
WARSAW +       CLOUDY    77  68  73 SW3       30.04S

$$

INZ006>009-017-018-025>027-130000-
NORTHEAST INDIANA

CITY           SKY/WX    TMP DP  RH WIND       PRES   REMARKS
ANGOLA *+      SUNNY     77  70  78 S7        30.03F
FORT WAYNE     PTSUNNY   79  67  66 SW9       30.05S

$$

INZ028-029-035-036-043>045-051>053-130000-
WEST CENTRAL INDIANA

CITY           SKY/WX    TMP DP  RH WIND       PRES   REMARKS
GREENCASTLE +  PTSUNNY   77  70  78 S7        30.06F
LAFAYETTE      CLOUDY    77  71  82 SW8       30.01F
TERRE HAUTE    CLOUDY    80  72  76 S8        30.04F

$$

INZ030>032-037>040-046>048-054>057-064-065-130000-
CENTRAL INDIANA

CITY           SKY/WX    TMP DP  RH WIND       PRES   REMARKS
COLUMBUS       PTSUNNY   81  72  74 SW15      30.07F
INDIANAPOLIS   CLOUDY    78  69  73 SW15      30.04F
-EAGLE CREEK   PTSUNNY   79  69  71 S12G18    30.04F
KOKOMO *+      CLOUDY    75  68  78 S8        30.04S
MT COMFORT *+  CLOUDY    79  73  83 SW13      30.05F
SHELBYVILLE    CLOUDY    82  71  69 SW14      30.06F

$$

INZ033-034-041-042-049-050-058-059-130000-
EAST CENTRAL INDIANA

CITY           SKY/WX    TMP DP  RH WIND       PRES   REMARKS
MUNCIE         PTSUNNY   79  66  64 SW13G18   30.05F

$$

INZ060-061-067>069-081>083-085>088-130000-
SOUTHWEST INDIANA

CITY           SKY/WX    TMP DP  RH WIND       PRES   REMARKS
EVANSVILLE     MOSUNNY   85  72  65 SW9       30.07F
HUNTINGBURG *+ PTSUNNY   84  70  61 SW13      30.08F

$$

INZ062-063-066-070>080-084-089>092-130000-
SOUTH CENTRAL AND SOUTHEAST INDIANA

CITY           SKY/WX    TMP DP  RH WIND       PRES   REMARKS
BLOOMINGTON    PTSUNNY   81  70  69 SW12      30.08F

$$




USA.gov is the U.S. government's official web portal to all federal, state and local government web resources and services.